Location: Albuquerque Trailhead
(34.7934°N, 106.3736°W)
Time: 02:27:30
(UTC+00:00)

Exosat Rocket - Pass Details

Date: 20 June 2021
Orbit: 761 x 2514 km, 72.3° (Epoch: 27 July)

Event Time Altitude Azimuth Distance (km) Brightness Sun altitude
Exits shadow 07:28:19 69° 73° (ENE) 1,092 4.2 -31.6°
Drops below altitude 10° 07:33:28 10° 24° (NNE) 2,521 7.0 -31.4°
Sets 07:35:38 0° 23° (NNE) 3,362 7.9 -31.4°
